"Pseudo-MPEC" for C3N8XR1

Created 2023 Apr 10 11:22:04 UT using Find_Orb

Click here for an explanation of pseudo-MPECs

 
 Astrometry: 
     C3N8XR1*1C2023 03 30.46419118 00 00.018+61 29 01.14   ~3UCb 19.87GVNEOCP703
     C3N8XR1 1C2023 03 30.46925317 59 57.404+61 29 11.80   ~3UCb 20.22GVNEOCP703
     C3N8XR1 1C2023 03 30.47940717 59 52.505+61 29 33.29   ~3UCbx20.09GVNEOCP703
     C3N8XR1*1C2023 03 30.49745017 59 44.140+61 30 15.50   ~3UCb 20.13GVNEOCP703
     C3N8XR1 1C2023 03 30.49929017 59 43.100+61 30 18.40   ~3UCb       VNEOCP703
     C3N8XR1 1C2023 03 30.50284317 59 41.500+61 30 26.60   ~3UCb       VNEOCP703
     C3N8XR1  C2023 04 02.41782 17 37 54.17 +62 59 36.9    ~4A07       VNEOCPI52
     C3N8XR1  C2023 04 02.41964 17 37 53.40 +62 59 40.7    ~4A07 21.3 GVNEOCPI52
     C3N8XR1  C2023 04 03.41636 17 30 34.90 +63 24 08.2    ~49Nq       VNEOCP703
     C3N8XR1  C2023 04 03.42170 17 30 32.52 +63 24 16.9    ~49Nq 21.3 GVNEOCP703
     C3N8XR1  C2023 04 03.42437 17 30 31.20 +63 24 20.0    ~49Nq       VNEOCP703
     C3N8XR1  C2023 04 03.42704 17 30 29.90 +63 24 24.7    ~49Nq       VNEOCP703
     C3N8XR1 KC2023 04 10.38553116 42 10.854+65 07 14.70   ~4A9q 21.36GVNEOCPI52
     C3N8XR1 KC2023 04 10.38893916 42 09.472+65 07 16.54   ~4A9q 21.34GVNEOCPI52
     C3N8XR1 KC2023 04 10.39233916 42 08.050+65 07 18.01   ~4A9q 21.85GVNEOCPI52
     C3N8XR1 KC2023 04 10.39574016 42 06.689+65 07 19.88   ~4A9q 21.34GVNEOCPI52

Station data:
(703) Catalina Sky Survey  (N32.417003 W110.732640)  US/Arizona.  Observer E.
   J. Christensen. 0.68 m Schmidt + 10K CCD.
(I52) Steward Observatory, Mt. Lemmon Station  (N32.442544 W110.788920)
   US/Arizona.  Observers T. A. Pruyne, B. M. Africano, E. J. Christensen, G.
   A. Farneth, D. C. Fuls, A. R. Gibbs, A. D. Grauer, H. Gröller, J. A.
   Johnson, R. A. Kowalski, S. M. Larson, G. J. Leonard, D. Rankin, R. L.
   Seaman, F. C. Shelly, K. W. Wierzchoś. 1.0-m prime focus + CCD.

Orbital elements:  C3N8XR1
   Perihelion 2023 Jan 20.69494 +/- 0.0975 TT = 16:40:43 (JD 2459965.19494)
Epoch 2023 Apr 10.0 TT = JDT 2460044.5   Earth MOID: 0.0033   Ve: 0.0940
M  66.73487872 +/- 0.26             (J2000 ecliptic)             AutoNEOCP
n   0.84149589 +/- 0.00227          Peri.  285.22947 +/- 0.07
a   1.11113811 +/- 0.002            Node   160.09664 +/- 0.014
e   0.4397610 +/- 0.0014            Incl.   31.32368 +/- 0.07
P   1.17/427.80d           H 20.94  G  0.15   U  8.7
q 0.62250289 +/- 0.000442    Q 1.59977334 +/- 0.00444
15 of 16 observations 2023 Mar. 30-Apr. 10; mean residual 0".55
Residuals in arcseconds: 
230330 703  .99+  .70-    230402 I52  .05-  .25+    230410 I52  .04-  .06-    
230330 703  .54-  1.2-    230402 I52  .39+  1.1+    230410 I52  .05+  .10+    
230330 703( 1.1-  1.9-)   230403 703  .18+  .93-    230410 I52  .12-  .09-    
230330 703  .38+  1.1+    230403 703  .50+  .02+    230410 I52  .10+  .13+    
230330 703  .81-  .03-    230403 703  .21-  .75-    
230330 703  .16-  .49+    230403 703  .78-  .09+    

Ephemerides (geocentric):
Date (UTC) HH   RA             Dec           delta  r     elong  mag " sig PA
---- --------  ------------   ------------  ------ ------ -----  --- --------
2023 04 10 11  16 41 41.051   +65 07 36.96  .40765 1.1307  97.7 21.5 .115   8
2023 04 10 12  16 41 24.692   +65 07 55.24  .40801 1.1310  97.7 21.5 .121   8
2023 04 10 13  16 41 08.345   +65 08 13.33  .40837 1.1313  97.7 21.5 .126   7
2023 04 10 14  16 40 52.012   +65 08 31.22  .40873 1.1316  97.7 21.5 .131   7
2023 04 10 15  16 40 35.692   +65 08 48.93  .40909 1.1319  97.7 21.5 .137   7
2023 04 10 16  16 40 19.384   +65 09 06.45  .40945 1.1322  97.8 21.5 .142   7
2023 04 10 17  16 40 03.090   +65 09 23.79  .40981 1.1325  97.8 21.5 .148   7
2023 04 10 18  16 39 46.809   +65 09 40.93  .41017 1.1328  97.8 21.5 .153   6
2023 04 10 19  16 39 30.541   +65 09 57.88  .41053 1.1331  97.8 21.5 .159   6
2023 04 10 20  16 39 14.286   +65 10 14.65  .41089 1.1333  97.8 21.5 .164   6
2023 04 10 21  16 38 58.043   +65 10 31.23  .41125 1.1336  97.8 21.5 .170   6
2023 04 10 22  16 38 41.815   +65 10 47.63  .41161 1.1339  97.9 21.5 .175   6
2023 04 10 23  16 38 25.599   +65 11 03.83  .41198 1.1342  97.9 21.5 .181   6
2023 04 11 00  16 38 09.396   +65 11 19.86  .41234 1.1345  97.9 21.5 .186   5
2023 04 11 01  16 37 53.207   +65 11 35.69  .41270 1.1348  97.9 21.5 .192   5
2023 04 11 02  16 37 37.030   +65 11 51.34  .41306 1.1351  97.9 21.5 .198   5
2023 04 11 03  16 37 20.867   +65 12 06.81  .41342 1.1354  97.9 21.5 .203   5
2023 04 11 04  16 37 04.718   +65 12 22.09  .41378 1.1357  98.0 21.5 .209   5
2023 04 11 05  16 36 48.581   +65 12 37.19  .41414 1.1360  98.0 21.5 .215   4
2023 04 11 06  16 36 32.458   +65 12 52.10  .41450 1.1363  98.0 21.5 .221   4
2023 04 11 07  16 36 16.348   +65 13 06.83  .41486 1.1366  98.0 21.5 .226   4
2023 04 11 08  16 36 00.251   +65 13 21.38  .41522 1.1369  98.0 21.5 .232   4
2023 04 11 09  16 35 44.168   +65 13 35.75  .41558 1.1371  98.0 21.5 .238   4
2023 04 11 10  16 35 28.098   +65 13 49.93  .41594 1.1374  98.1 21.5 .244   4
2023 04 11 11  16 35 12.042   +65 14 03.93  .41630 1.1377  98.1 21.5 .250   3
2023 04 11 12  16 34 55.999   +65 14 17.76  .41666 1.1380  98.1 21.5 .256   3
2023 04 11 13  16 34 39.969   +65 14 31.40  .41702 1.1383  98.1 21.5 .262   3
2023 04 11 14  16 34 23.953   +65 14 44.85  .41738 1.1386  98.1 21.5 .268   3
2023 04 11 15  16 34 07.950   +65 14 58.13  .41774 1.1389  98.1 21.5 .274   3
2023 04 11 16  16 33 51.961   +65 15 11.23  .41810 1.1392  98.2 21.5 .280   3
2023 04 11 17  16 33 35.985   +65 15 24.15  .41846 1.1395  98.2 21.5 .286   2
2023 04 11 18  16 33 20.023   +65 15 36.89  .41882 1.1398  98.2 21.5 .292   2
2023 04 11 19  16 33 04.074   +65 15 49.46  .41918 1.1401  98.2 21.5 .298   2
2023 04 11 20  16 32 48.139   +65 16 01.84  .41954 1.1404  98.2 21.6 .304   2
2023 04 11 21  16 32 32.217   +65 16 14.05  .41990 1.1406  98.2 21.6 .310   2
2023 04 11 22  16 32 16.309   +65 16 26.07  .42026 1.1409  98.3 21.6 .316   2
2023 04 11 23  16 32 00.415   +65 16 37.93  .42062 1.1412  98.3 21.6 .322   2
2023 04 12 00  16 31 44.534   +65 16 49.60  .42098 1.1415  98.3 21.6 .329   1
2023 04 12 01  16 31 28.667   +65 17 01.10  .42134 1.1418  98.3 21.6 .335   1
2023 04 12 02  16 31 12.814   +65 17 12.42  .42170 1.1421  98.3 21.6 .341   1
2023 04 12 03  16 30 56.975   +65 17 23.56  .42206 1.1424  98.3 21.6 .347   1
2023 04 12 04  16 30 41.149   +65 17 34.54  .42242 1.1427  98.3 21.6 .353   1
2023 04 12 05  16 30 25.337   +65 17 45.33  .42278 1.1430  98.4 21.6 .360   1
2023 04 12 06  16 30 09.538   +65 17 55.95  .42314 1.1433  98.4 21.6 .366   0
2023 04 12 07  16 29 53.754   +65 18 06.40  .42350 1.1435  98.4 21.6 .372   0
2023 04 12 08  16 29 37.983   +65 18 16.67  .42386 1.1438  98.4 21.6 .379   0
2023 04 12 09  16 29 22.226   +65 18 26.77  .42422 1.1441  98.4 21.6 .385   0
2023 04 12 10  16 29 06.483   +65 18 36.69  .42458 1.1444  98.4 21.6 .391   0